McAllen, TX

8:22 AM CDT on March 24, 2017 (GMT -0500)
McAllen Miller International

Weather History for KMFE - April, 2014

Change the Weather History Date:

Sunday, April 13, 2014

  Actual Average Record
Temperature  
Mean Temperature 82 °F 76 °F  
Max Temperature 91 °F 87 °F 99 °F (1982)
Min Temperature 73 °F 65 °F 48 °F (1997)
Degree Days  
Heating Degree Days 0 0  
Month to date heating degree days 0 3  
Since 1 July heating degree days 874 574  
Cooling Degree Days 17 11  
Month to date cooling degree days 143 137  
Year to date cooling degree days 407 514  
Growing Degree Days 32 (Base 50)    
Moisture  
Dew Point 70 °F    
Average Humidity 70    
Maximum Humidity 87    
Minimum Humidity 52    
Precipitation  
Precipitation 0.00 in 0.04 in 0.81 in (2010)
Month to date precipitation 0.03 0.43  
Year to date precipitation 2.08 3.62  
Sea Level Pressure  
Sea Level Pressure 29.75 in    
Wind  
Wind Speed 17 mph (SSE)    
Max Wind Speed 26 mph    
Max Gust Speed 35 mph    
Visibility 10 miles    
Events      
T = Trace of Precipitation, MM = Missing Value Source: NWS Daily Summary

Daily Weather History Graph

Daily Weather History Graph

Search for Another Location

Airport or City:

Trip Planner

Search our weather history database for the weather conditions in past years. The results will help you decide how hot, cold, wet, or windy it might be!

Date:

Astronomy

Apr. 13, 2014 Rise Set
Actual Time 7:11 AM CDT 7:55 PM CDT
Civil Twilight 6:48 AM CDT 8:19 PM CDT
Nautical Twilight 6:20 AM CDT 8:46 PM CDT
Astronomical Twilight 5:52 AM CDT 9:15 PM CDT
Moon 6:41 PM CDT (4/13) 6:01 AM CDT (4/13)
Length of Visible Light 13h 31m
Length of Day
12h 44m
Waxing Gibbous, 97% of the Moon is Illuminated
Apr 13
Waxing Gibbous
Apr 15
Full
Apr 22
Last Quarter
Apr 29
New
May 6
First Quarter

Hourly Weather History & Observations

Time (CDT) Temp. Heat Index Dew Point Humidity Pressure Visibility Wind Dir Wind Speed Gust Speed Precip Events Conditions
12:15 AM 73.4 °F - 68.0 °F 83% 29.86 in 10.0 mi SE 17.3 mph 21.9 mph N/A   Partly Cloudy
12:53 AM 73.0 °F - 68.0 °F 84% 29.86 in 10.0 mi SSE 16.1 mph 23.0 mph N/A   Clear
1:53 AM 73.0 °F - 69.1 °F 87% 29.83 in 10.0 mi SSE 16.1 mph 25.3 mph N/A   Clear
2:17 AM 73.4 °F - 69.8 °F 88% 29.84 in 10.0 mi SSE 11.5 mph - N/A   Mostly Cloudy
2:48 AM 73.4 °F - 69.8 °F 88% 29.82 in 10.0 mi SSE 15.0 mph 20.7 mph N/A   Overcast
2:53 AM 73.0 °F - 70.0 °F 90% 29.82 in 10.0 mi SSE 13.8 mph 20.7 mph N/A   Overcast
3:53 AM 73.0 °F - 70.0 °F 90% 29.80 in 10.0 mi SSE 12.7 mph 20.7 mph N/A   Overcast
4:53 AM 73.0 °F - 70.0 °F 90% 29.76 in 10.0 mi SSE 13.8 mph - N/A   Overcast
5:44 AM 73.4 °F - 69.8 °F 88% 29.76 in 10.0 mi SSE 13.8 mph - N/A   Overcast
5:53 AM 73.0 °F - 70.0 °F 90% 29.75 in 10.0 mi SE 13.8 mph - N/A   Overcast
6:35 AM 73.4 °F - 69.8 °F 88% 29.75 in 10.0 mi SSE 16.1 mph 24.2 mph N/A   Overcast
6:53 AM 73.0 °F - 70.0 °F 90% 29.75 in 10.0 mi SSE 15.0 mph 24.2 mph N/A   Overcast
7:12 AM 73.4 °F - 69.8 °F 88% 29.75 in 10.0 mi SSE 16.1 mph 28.8 mph N/A   Overcast
7:53 AM 73.9 °F - 70.0 °F 87% 29.76 in 10.0 mi SSE 15.0 mph 23.0 mph N/A   Overcast
8:53 AM 75.9 °F - 70.0 °F 82% 29.77 in 10.0 mi SSE 19.6 mph 31.1 mph N/A   Mostly Cloudy
9:53 AM 78.1 °F - 69.1 °F 74% 29.78 in 10.0 mi SSE 23.0 mph 29.9 mph N/A   Overcast
10:53 AM 80.1 °F 83.2 °F 70.0 °F 71% 29.78 in 10.0 mi South 18.4 mph 25.3 mph N/A   Overcast
11:03 AM 80.6 °F 83.9 °F 69.8 °F 70% 29.78 in 10.0 mi South 19.6 mph 29.9 mph N/A   Mostly Cloudy
11:16 AM 82.4 °F 86.3 °F 69.8 °F 66% 29.78 in 10.0 mi South 18.4 mph 31.1 mph N/A   Mostly Cloudy
11:37 AM 82.4 °F 86.3 °F 69.8 °F 66% 29.78 in 10.0 mi South 16.1 mph 26.5 mph N/A   Overcast
11:53 AM 84.0 °F 87.8 °F 69.1 °F 61% 29.77 in 10.0 mi SSE 24.2 mph 34.5 mph N/A   Overcast
12:53 PM 86.0 °F 90.7 °F 70.0 °F 59% 29.74 in 10.0 mi SSE 19.6 mph 31.1 mph N/A   Mostly Cloudy
1:53 PM 88.0 °F 92.1 °F 69.1 °F 53% 29.71 in 10.0 mi SSE 19.6 mph 25.3 mph N/A   Scattered Clouds
2:53 PM 89.1 °F 93.7 °F 69.1 °F 52% 29.68 in 10.0 mi SSE 17.3 mph 25.3 mph N/A   Scattered Clouds
3:53 PM 90.0 °F 95.4 °F 70.0 °F 52% 29.66 in 10.0 mi SSE 16.1 mph 24.2 mph N/A   Partly Cloudy
4:53 PM 88.0 °F 93.8 °F 71.1 °F 57% 29.65 in 10.0 mi SE 17.3 mph 25.3 mph N/A   Clear
5:53 PM 86.0 °F 92.2 °F 72.0 °F 63% 29.64 in 10.0 mi SSE 15.0 mph - N/A   Clear
6:53 PM 84.2 °F 89.6 °F 71.6 °F 66% 29.66 in 10.0 mi SE 16.1 mph - N/A   Partly Cloudy
7:53 PM 81.0 °F 84.9 °F 71.1 °F 72% 29.66 in 10.0 mi SE 15.0 mph - N/A   Clear
8:53 PM 78.1 °F - 71.1 °F 79% 29.68 in 10.0 mi SSE 17.3 mph 24.2 mph N/A   Clear
9:45 PM 77.0 °F - 71.6 °F 83% 29.70 in 10.0 mi SSE 12.7 mph - N/A   Mostly Cloudy
9:53 PM 77.0 °F - 72.0 °F 84% 29.71 in 10.0 mi SSE 10.4 mph - N/A   Overcast
10:53 PM 77.0 °F - 72.0 °F 84% 29.71 in 10.0 mi SSE 17.3 mph 24.2 mph N/A   Overcast
11:53 PM 77.0 °F - 71.1 °F 82% 29.71 in 9.0 mi SE 18.4 mph 25.3 mph N/A   Overcast